Helicity
61 55 52 44 41 38 35 48 50 58 33 35 47 54 57 43 46 30 30 29 32 41 34 29 31 46 51 66 71 52 62 70 68 93 104 108 138 159 208 215 199 238 259 129
48 50 56 51 37 66 89 84 59 60 42 58 45 38 41 40 53 46 50 52 46 39 26 8 27 26 29 58 55 49 53 25 16 17 26 86 102 147 205 228 230 290 251 75
28 32 45 62 48 93 83 92 84 41 41 40 60 58 48 54 43 48 48 40 35 35 36 46 23 26 27 61 56 49 56 52 64 86 48 94 142 144 159 232 232 295 506 318
7 3 5 34 38 76 89 53 70 91 78 57 59 59 67 53 52 54 66 58 65 69 45 53 62 65 73 90 92 95 69 74 103 111 138 148 167 167 219 353 334 318 268 326
21 13 18 27 23 51 51 55 65 58 67 63 81 73 77 74 60 83 52 66 75 99 88 88 70 97 86 87 122 130 108 71 43 89 54 91 181 167 174 201 248 349 347 281
31 29 29 37 48 17 25 25 48 70 53 65 63 68 86 75 80 78 82 80 88 93 89 102 97 127 131 144 164 155 148 92 35 44 30 33 55 60 170 173 185 266 260 348
22 18 20 25 37 19 7 19 49 71 39 68 72 78 94 95 87 80 83 115 112 66 79 78 112 124 139 175 176 203 179 145 106 53 -51 12 82 83 126 186 115 309 204 130
30 21 14 7 10 27 16 20 49 75 64 89 46 73 91 79 98 112 105 91 103 104 90 70 60 75 82 80 107 137 173 166 103 81 69 58 38 83 83 95 14 156 161 40
36 39 38 34 22 29 31 30 54 88 103 67 84 84 90 93 97 93 89 97 89 107 87 79 64 48 72 80 103 128 138 171 193 181 123 88 104 72 55 38 62 96 14 -88
46 44 53 55 42 41 51 39 35 68 92 84 129 110 102 117 124 99 105 69 57 104 105 95 79 76 102 86 100 119 169 155 189 194 178 102 99 123 57 102 78 49 -62 -32
50 53 49 57 69 52 66 61 53 79 99 99 127 125 159 140 159 120 130 76 71 110 88 84 84 111 99 106 143 119 160 172 190 187 149 39 131 62 80 85 101 35 45 118
40 49 56 58 75 79 89 72 88 94 143 179 143 181 197 165 114 117 173 136 106 117 106 93 102 120 144 124 128 170 150 166 200 219 171 194 174 292 226 174 138 128 112 75
59 54 63 71 78 91 89 105 130 131 147 115 150 95 118 110 139 82 145 140 158 219 210 176 196 165 225 163 122 178 139 232 314 296 306 186 180 141 138 138 145 106 94 73
74 71 70 78 97 100 121 171 153 188 180 176 66 31 19 93 137 110 189 247 259 269 265 233 231 258 217 248 236 365 339 356 300 239 210 100 37 28 43 29 23 46 46 60
109 97 89 74 86 107 144 157 177 204 213 336 199 115 140 196 154 206 221 187 256 291 291 324 352 319 314 301 275 386 446 378 322 277 150 135 71 60 55 40 31 25 26 38
112 108 94 101 104 98 181 171 133 155 175 234 374 228 155 149 161 196 260 279 301 330 342 343 345 387 310 291 338 194 189 171 120 132 134 100 90 66 63 71 81 99 89 89
123 122 119 105 89 142 165 197 174 165 188 204 263 210 225 151 151 163 218 273 290 314 374 441 415 353 284 458 467 395 197 164 135 129 122 101 86 89 150 151 123 111 153 168
132 111 112 110 102 137 151 94 117 140 164 181 252 390 384 285 253 218 231 226 208 268 331 465 416 346 406 477 347 226 121 66 75 71 94 151 130 199 242 237 226 270 281 297
123 115 104 119 143 166 164 113 107 220 212 290 360 388 273 296 250 253 237 210 222 224 355 426 297 430 515 301 267 183 107 57 14 94 188 169 188 220 287 293 306 320 362 389
122 107 124 114 124 94 104 163 163 203 317 424 459 491 472 370 326 336 286 259 279 332 270 238 316 408 317 127 150 58 109 169 156 178 270 234 224 193 185 201 176 134 143 148
121 133 149 138 105 124 142 166 248 273 410 315 352 317 318 299 283 245 175 248 281 313 290 380 391 402 175 155 199 223 266 247 270 210 180 142 117 101 85 117 137 86 77 70
138 159 124 127 138 169 194 291 344 412 377 325 220 138 150 186 218 191 231 279 297 365 334 389 442 168 133 278 311 330 308 336 325 244 145 153 165 136 88 89 65 53 42 30
145 180 201 169 166 291 392 458 510 363 236 174 137 127 145 190 180 212 264 324 360 399 403 422 289 236 329 310 355 364 297 259 247 125 124 133 126 105 73 45 39 46 36 27
212 225 290 257 268 325 387 359 291 242 210 161 143 152 123 166 209 228 274 168 232 400 448 318 211 157 278 326 281 223 196 191 119 61 49 39 7 13 -14 14 39 5 -26 -10
249 262 294 295 352 398 327 248 214 142 122 138 133 139 166 177 191 190 263 300 340 283 235 173 34 90 158 132 116 101 84 105 142 106 62 -17 -18 -28 4 -23 -23 -9 55 44
230 318 395 360 322 271 240 220 185 154 172 167 150 175 199 201 258 289 254 329 330 245 120 59 259 273 231 199 100 2 -10 14 52 42 -3 -11 -14 -32 -5 19 35 64 63 88
318 338 347 344 294 231 229 190 164 147 164 172 147 172 110 168 153 255 275 311 206 148 173 220 207 65 19 -31 -65 -60 -5 -15 -4 42 36 49 39 109 57 47 26 61 74 101
Wind_Speed
38 37 33 29 28 31 37 37 40 25 32 35 35 39 39 36 36 32 32 32 30 29 28 26 26 27 26 26 26 21 25 22 14 15 25 23 21 18 21 19 19 19 21 12
33 37 36 34 30 37 42 42 37 31 32 44 44 38 37 35 34 31 31 30 29 28 25 24 25 24 24 26 23 23 22 18 10 16 19 18 13 12 12 13 12 8 8 8
38 33 27 25 29 44 43 44 45 38 45 41 42 40 38 34 32 31 29 27 28 25 23 25 22 21 21 23 21 19 20 17 16 13 10 11 10 12 17 18 14 12 19 27
63 65 58 16 18 45 44 47 47 44 44 46 42 37 36 35 32 28 27 26 23 24 22 21 21 21 20 20 19 22 19 11 10 17 24 24 26 24 21 21 23 14 12 16
60 62 64 63 63 48 52 50 47 43 43 41 41 38 33 33 32 29 28 22 24 18 16 16 15 18 17 17 22 19 21 10 2 16 8 7 12 18 19 22 26 30 32 36
58 59 60 63 66 55 50 47 44 44 43 43 43 38 35 33 35 29 28 27 29 20 5 4 5 14 22 17 15 12 22 19 24 3 14 32 8 7 13 9 8 12 12 13
56 56 57 57 60 58 47 45 45 48 50 46 42 39 34 30 27 27 35 29 32 37 37 42 42 36 28 22 13 18 23 26 30 6 40 18 32 35 28 4 8 5 7 14
55 55 53 52 52 53 47 43 45 47 53 46 46 40 38 37 34 30 27 28 35 38 47 48 49 41 38 33 25 13 25 28 39 40 38 21 26 39 33 25 10 15 6 10
54 53 52 50 46 47 45 44 42 44 52 47 44 48 44 46 46 45 36 37 38 40 42 42 45 42 42 34 37 39 22 31 30 45 43 49 48 43 37 37 52 46 27 24
54 54 54 53 48 42 43 43 38 44 51 42 41 51 49 42 46 46 43 42 39 38 39 39 40 46 40 42 39 38 38 36 27 33 44 48 37 32 43 54 53 58 56 62
53 56 56 53 52 43 40 44 35 43 49 52 38 36 41 42 42 45 42 50 39 37 41 43 45 43 41 46 43 45 41 39 40 37 48 57 32 45 50 62 71 77 85 80
55 59 56 53 51 49 35 46 40 37 44 52 47 44 39 35 32 35 34 36 38 32 42 44 49 51 50 52 62 46 54 40 47 33 49 51 52 55 58 69 82 93 87 89
62 62 58 54 53 50 38 45 40 45 56 63 48 44 37 31 18 18 37 39 33 34 34 45 48 55 50 59 57 55 48 43 55 60 59 65 69 66 66 65 66 68 78 87
65 64 61 57 55 54 48 45 40 45 55 69 58 36 35 29 16 16 19 31 35 38 38 41 44 50 38 54 54 55 51 50 61 66 66 72 59 67 78 82 83 88 86 86
65 63 60 59 58 56 51 50 43 39 47 63 65 58 52 43 32 29 27 18 28 39 46 44 49 47 51 52 45 46 48 53 55 63 57 70 84 83 89 96 94 87 93 93
66 62 61 60 60 54 54 63 45 35 42 60 74 55 49 45 42 41 38 36 38 38 44 48 45 43 45 56 54 52 45 38 43 55 62 76 84 86 78 83 89 83 80 80
68 66 65 65 62 52 53 54 45 33 33 55 71 67 46 41 43 42 43 40 43 45 52 58 57 49 40 59 53 61 70 70 67 66 78 88 77 87 82 74 72 73 72 71
64 66 63 64 61 59 58 56 48 35 50 54 63 63 59 36 50 55 45 48 48 51 58 59 62 59 58 78 69 67 65 66 70 74 66 68 68 69 69 68 71 75 77 79
63 65 66 56 50 54 53 51 36 37 44 56 56 61 72 43 50 52 52 50 65 58 63 64 58 64 68 64 68 71 79 75 73 67 60 58 58 64 70 73 78 81 85 86
63 56 55 59 49 48 47 46 44 44 48 53 67 55 68 52 57 59 58 57 66 75 68 54 67 79 72 68 67 67 59 59 53 56 63 63 69 73 78 80 80 81 85 88
49 53 55 49 47 50 51 56 52 50 59 53 58 57 67 53 64 65 54 62 59 78 71 65 79 87 75 56 42 48 51 52 55 54 57 60 65 74 78 83 84 85 88 91
49 49 47 49 51 54 59 60 53 55 65 53 59 60 54 52 48 56 54 67 60 81 54 71 85 73 55 45 48 50 49 55 60 59 63 66 70 77 84 89 94 98 99 98
45 50 55 55 55 67 67 73 62 62 58 55 56 61 53 51 50 55 54 65 71 54 71 83 76 61 48 46 54 56 55 57 61 68 71 75 82 86 88 96 97 100 102 99
55 55 69 64 66 68 68 71 67 63 62 59 56 61 56 53 53 54 66 61 60 83 91 92 78 54 46 51 57 62 69 69 76 82 89 94 99 103 100 98 99 99 103 104
59 57 73 77 69 66 63 62 64 63 59 57 62 64 59 64 68 66 70 71 79 76 79 69 57 41 50 66 74 81 84 88 96 100 103 101 103 104 108 101 99 102 104 101
60 64 76 71 74 77 73 70 70 57 57 59 62 68 71 74 69 72 75 77 83 74 71 69 61 72 83 89 91 96 95 95 98 103 101 101 103 106 111 110 104 101 96 100
66 78 77 80 82 81 74 68 69 54 60 76 72 83 85 71 83 92 84 97 89 76 78 82 90 98 99 97 102 104 104 106 108 106 102 102 105 106 107 110 103 97 94 93
Wind_Direction
69 68 67 67 75 93 95 98 92 108 105 103 110 109 114 128 130 132 131 129 131 139 141 147 143 138 140 106 93 102 75 101 156 109 63 74 67 76 78 79 76 76 60 92
69 66 64 62 66 81 88 85 92 97 102 76 81 100 107 113 117 130 130 131 140 136 140 146 146 149 142 129 125 118 110 142 180 145 127 84 148 123 120 87 76 179 134 122
63 65 63 56 61 71 79 79 76 83 73 82 72 72 77 89 92 100 109 126 128 133 144 141 140 145 136 126 133 129 114 143 162 178 180 136 193 189 180 182 197 202 222 259
7 5 13 345 350 64 70 66 67 70 67 63 62 69 64 57 62 75 71 85 108 101 102 97 111 111 100 95 105 90 104 153 150 225 241 240 240 232 211 204 207 205 246 244
355 355 356 347 346 49 49 50 51 55 57 58 59 59 59 49 42 43 42 58 49 75 81 82 66 60 63 63 48 62 52 107 126 255 120 121 238 218 208 210 220 233 245 259
349 351 353 354 352 27 37 42 45 42 40 40 39 44 48 46 33 32 21 19 11 22 148 69 33 8 1 13 27 43 15 32 27 163 21 271 199 104 149 93 83 202 221 248
346 349 353 358 2 15 30 32 32 23 15 19 23 24 28 31 35 28 10 10 356 351 348 342 340 340 341 345 353 353 358 2 3 297 280 30 9 2 8 15 5 289 272 236
341 343 349 356 1 7 17 23 19 13 1 7 7 11 9 7 7 8 7 2 352 348 336 334 332 342 343 346 343 337 340 343 344 347 350 285 358 2 3 1 313 354 227 289
339 340 343 349 356 1 8 10 14 8 356 356 359 356 357 351 350 348 354 354 353 345 341 337 329 332 333 344 343 340 337 335 339 340 342 339 339 348 357 356 337 346 351 342
333 332 334 338 345 353 357 356 5 357 348 354 355 345 345 351 347 341 344 345 346 346 342 337 332 325 329 329 333 334 333 325 312 324 330 332 329 335 343 333 332 337 337 330
326 325 325 329 334 342 347 345 355 348 340 337 344 347 342 340 340 335 343 337 340 340 334 333 330 329 326 323 328 328 325 325 323 326 326 329 350 342 331 325 322 321 319 321
319 320 322 324 326 331 338 333 342 342 334 328 330 323 318 318 320 326 336 332 336 336 327 326 326 323 323 321 317 323 319 319 319 311 321 325 324 321 323 322 319 312 315 316
311 313 316 317 319 321 325 326 333 333 327 327 335 338 333 329 309 321 328 326 323 324 324 322 319 313 318 315 317 321 325 317 308 312 316 314 318 320 320 322 321 323 320 318
306 308 310 313 315 315 315 317 322 326 325 320 328 350 348 351 358 327 301 316 324 324 322 316 315 315 321 313 317 317 319 319 313 308 310 314 320 324 322 320 320 318 319 319
304 306 307 309 311 313 311 308 310 309 312 311 311 316 315 314 312 312 317 300 306 311 312 311 310 316 314 313 318 308 314 312 310 312 319 317 317 319 318 317 318 320 319 318
304 305 305 307 309 310 313 310 316 300 301 310 308 315 314 316 316 310 308 307 307 304 309 309 312 311 311 313 319 324 326 314 305 302 313 316 317 319 323 323 321 324 325 324
302 304 304 303 303 303 298 306 322 330 321 310 308 310 318 318 314 313 312 311 308 306 305 301 303 308 304 307 298 313 315 315 314 314 315 314 319 318 322 325 328 329 331 333
303 303 305 305 301 302 296 296 299 307 308 307 302 304 310 317 309 306 312 309 307 307 304 304 302 305 302 302 311 315 317 320 318 317 320 319 322 325 328 331 331 330 331 331
302 303 302 304 301 300 304 308 296 293 291 301 299 300 306 318 311 310 308 307 301 305 298 299 302 298 295 308 314 316 317 318 318 321 325 329 332 331 330 330 330 328 326 327
301 302 300 296 302 307 310 309 302 297 292 287 291 295 296 305 308 307 308 307 301 298 300 306 298 297 301 306 308 314 323 330 334 330 327 330 330 329 327 326 327 326 324 323
299 295 293 301 307 305 300 297 294 295 297 298 296 287 290 299 295 296 300 303 305 300 301 297 301 302 310 316 319 323 327 331 333 333 332 331 329 327 326 325 325 324 322 321
296 298 302 301 298 293 291 290 294 291 294 300 301 301 300 301 301 298 300 295 297 295 306 301 302 311 315 319 322 325 327 330 330 331 329 329 328 326 324 323 321 321 320 318
296 291 289 289 287 281 284 285 290 295 299 301 302 302 303 302 298 298 300 296 292 303 296 297 303 314 316 318 321 324 324 324 325 324 325 324 322 323 322 320 321 320 319 319
284 281 278 278 281 282 281 282 291 295 298 300 301 301 298 300 295 295 295 297 300 294 294 296 303 301 306 320 323 321 318 317 318 318 318 317 317 315 316 318 318 318 317 317
276 279 277 274 278 283 290 292 292 294 299 300 300 297 295 293 292 294 293 293 291 295 298 306 312 308 308 313 316 316 314 312 312 313 313 313 314 314 314 316 317 317 316 315
271 272 276 280 282 281 283 286 290 297 296 299 298 296 294 289 290 288 288 291 290 298 303 307 306 306 306 308 310 312 312 311 311 312 312 312 313 313 314 315 317 317 317 316
272 271 271 274 280 281 282 287 289 293 292 289 291 288 287 293 289 287 287 287 294 300 302 303 303 303 304 306 308 309 309 308 309 309 309 309 312 313 313 313 316 318 320 319